West Quincy, Missouri
Current Conditions -  °F | °C
As of 10:15 PM on Monday 20 Oct 2014 (Local Time) from KHAE Reporting Station
Clear Clear  
Wind Chill: 54°   Ceiling: Unl
Heat Index: 54°   Visibility: 10mi
Dew Point: 41°   Wind: 6mph
Humidity: 62%   Direction: 270°W
Pressure: 30.03"   Gusts: NA
Location:  39.9055°N, 91.5111°W
Report Text: KHAE 210315Z AUTO 27005KT 10SM CLR 12/05 A3003 RMK AO2
Loading
Personal Weather Stations






























Interactive Weather Map
Tropical Storm Tracking
New forecast layout! Learn more

10-Day Weather Forecast

Advertisements
Track Severe Weather on mobile